M I D A S
Marine Information and Data Acquisition System
Tripno 901 of the Zeeleeuw from 2005-05-17 07:33:26 to 2005-05-17 10:59:46
Back to CruiseResearch ActivitiesStationsMapUnderway DataData graphs

EquipmentUnitsComments
TimeDGPSUTC
LatitudeDGPSDM.mWGS84
LongitudeDGPSDM.mWGS84
SpeedMeteo Stationm/sRelative wind speed
DirectionMeteo StationdegRelative wind direction
TemperatureMeteo Stationdeg CelciusAir temperature
PressureMeteo StationPaAtmospheric pressure
HumidityMeteo Station%Relative humidity
Missing or incorrect values are displayed as -999
Metereological data collected by the RV Zeeleeuw from 2005-05-17 07:28:40 to 2005-05-17 11:10:10
                                                                                    Next 1000 lines
Time Latitude Longitude Speed Direction Temperature Pressure Humidity
2005-05-17 07:28:50 51°13.596 2°56.098 2.7 248 9.4 101770 51
2005-05-17 07:28:54 51°13.596 2°56.096 3.1 275 9.4 101770 51
2005-05-17 07:29:00 51°13.597 2°56.092 2.6 255 9.4 101770 51
2005-05-17 07:29:04 51°13.598 2°56.089 2.9 262 9.4 101770 51
2005-05-17 07:29:10 51°13.6 2°56.083 3.2 238 9.4 101770 51
2005-05-17 07:29:15 51°13.602 2°56.078 2 256 9.4 101770 51
2005-05-17 07:29:20 51°13.603 2°56.073 1.9 253 9.4 101770 51
2005-05-17 07:29:26 51°13.605 2°56.067 2.7 234 9.4 101770 52
2005-05-17 07:29:30 51°13.608 2°56.061 2.5 231 9.4 101770 52
2005-05-17 07:29:35 51°13.609 2°56.056 2.9 256 9.4 101780 51
2005-05-17 07:29:40 51°13.612 2°56.049 2.9 260 9.4 101780 51
2005-05-17 07:29:45 51°13.614 2°56.042 2.8 260 9.5 101780 52
2005-05-17 07:29:50 51°13.617 2°56.034 3.7 262 9.5 101780 52
2005-05-17 07:29:55 51°13.62 2°56.027 3.6 262 9.5 101780 52
2005-05-17 07:30:00 51°13.622 2°56.019 3.2 255 9.5 101780 52
2005-05-17 07:30:06 51°13.625 2°56.01 4.2 253 9.5 101780 52
2005-05-17 07:30:10 51°13.627 2°56.002 2.8 265 9.5 101780 52
2005-05-17 07:30:15 51°13.63 2°55.993 3.1 211 9.4 101780 50
2005-05-17 07:30:20 51°13.633 2°55.985 2.7 239 9.4 101780 50
2005-05-17 07:30:26 51°13.636 2°55.975 3.5 232 9.4 101780 50
2005-05-17 07:30:30 51°13.638 2°55.967 3.6 233 9.4 101780 50
2005-05-17 07:30:35 51°13.641 2°55.958 6.5 222 9.4 101780 51
2005-05-17 07:30:40 51°13.644 2°55.949 5.6 230 9.4 101780 51
2005-05-17 07:30:46 51°13.647 2°55.938 6.4 245 9.4 101780 51
2005-05-17 07:30:50 51°13.65 2°55.93 6 245 9.4 101780 51
2005-05-17 07:30:55 51°13.653 2°55.921 6.7 238 9.4 101780 50
2005-05-17 07:31:00 51°13.656 2°55.913 7.5 233 9.4 101780 50
2005-05-17 07:31:05 51°13.659 2°55.904 6.9 240 9.3 101780 49
2005-05-17 07:31:10 51°13.662 2°55.894 6.5 240 9.3 101780 49
2005-05-17 07:31:15 51°13.666 2°55.886 5.7 249 9.2 101770 49
2005-05-17 07:31:20 51°13.669 2°55.878 6.2 227 9.2 101770 49
2005-05-17 07:31:25 51°13.672 2°55.869 5.6 239 9.2 101770 49
2005-05-17 07:31:30 51°13.676 2°55.86 4.3 251 9.2 101770 49
2005-05-17 07:31:35 51°13.679 2°55.852 5.1 244 9.1 101780 50
2005-05-17 07:31:40 51°13.683 2°55.845 4.5 242 9.1 101780 50
2005-05-17 07:31:45 51°13.687 2°55.836 3.6 206 9.1 101770 51
2005-05-17 07:31:50 51°13.691 2°55.828 4 206 9.1 101770 51
2005-05-17 07:31:55 51°13.694 2°55.82 4.5 238 9.1 101770 51
2005-05-17 07:32:00 51°13.698 2°55.812 3.5 231 9.1 101770 51
2005-05-17 07:32:05 51°13.703 2°55.803 3.1 234 9.1 101770 52
2005-05-17 07:32:10 51°13.707 2°55.795 3.4 229 9.1 101770 52
2005-05-17 07:32:14 51°13.711 2°55.788 4.3 220 9.1 101770 52
2005-05-17 07:32:20 51°13.716 2°55.779 6.7 226 9.1 101770 52
2005-05-17 07:32:25 51°13.721 2°55.771 4.9 210 9.1 101780 51
2005-05-17 07:32:30 51°13.726 2°55.763 4.9 214 9.1 101780 51
2005-05-17 07:32:35 51°13.731 2°55.755 4.6 214 9 101770 51
2005-05-17 07:32:40 51°13.735 2°55.747 5.4 219 9 101770 51
2005-05-17 07:32:45 51°13.741 2°55.74 5 214 9 101780 51
2005-05-17 07:32:50 51°13.746 2°55.732 4.8 216 9 101780 51
2005-05-17 07:32:55 51°13.751 2°55.726 5.3 220 9 101780 51
2005-05-17 07:33:00 51°13.756 2°55.719 4.3 206 9 101780 51
2005-05-17 07:33:05 51°13.762 2°55.713 6.1 216 9 101770 51
2005-05-17 07:33:10 51°13.768 2°55.706 6.2 212 9 101770 51
2005-05-17 07:33:15 51°13.774 2°55.7 6.5 213 8.9 101780 51
2005-05-17 07:33:20 51°13.779 2°55.693 3.8 216 8.9 101780 51
2005-05-17 07:33:25 51°13.785 2°55.688 6.3 229 8.9 101780 52
2005-05-17 07:33:30 51°13.791 2°55.681 5.6 231 8.9 101780 52
2005-05-17 07:33:35 51°13.797 2°55.676 3.1 271 8.9 101780 52
2005-05-17 07:33:40 51°13.802 2°55.671 6.7 209 8.9 101780 52
2005-05-17 07:33:45 51°13.809 2°55.666 7.1 232 8.9 101780 52
2005-05-17 07:33:50 51°13.815 2°55.662 6 217 8.9 101780 52
2005-05-17 07:33:55 51°13.82 2°55.657 2.9 196 8.9 101780 51
2005-05-17 07:34:00 51°13.826 2°55.654 5.4 225 8.9 101780 51
2005-05-17 07:34:05 51°13.832 2°55.65 6.1 219 8.9 101780 51
2005-05-17 07:34:10 51°13.838 2°55.648 5.1 211 8.9 101780 51
2005-05-17 07:34:15 51°13.844 2°55.646 6 206 8.9 101780 51
2005-05-17 07:34:20 51°13.85 2°55.644 5.4 212 8.9 101780 51
2005-05-17 07:34:25 51°13.856 2°55.643 5.2 197 8.9 101780 52
2005-05-17 07:34:30 51°13.862 2°55.642 6.8 210 8.9 101780 52
2005-05-17 07:34:35 51°13.868 2°55.642 7 211 8.8 101780 53
2005-05-17 07:34:40 51°13.874 2°55.642 5.2 201 8.8 101780 53
2005-05-17 07:34:46 51°13.881 2°55.642 4.7 194 8.8 101780 54
2005-05-17 07:34:50 51°13.886 2°55.643 5.9 199 8.8 101780 54
2005-05-17 07:34:54 51°13.891 2°55.644 5.4 201 8.8 101780 54
2005-05-17 07:35:00 51°13.897 2°55.646 3.3 186 8.8 101780 54
2005-05-17 07:35:05 51°13.903 2°55.648 3.1 181 8.8 101770 54
2005-05-17 07:35:10 51°13.909 2°55.65 4.3 190 8.8 101770 54
2005-05-17 07:35:15 51°13.913 2°55.653 5.7 179 8.8 101780 54
2005-05-17 07:35:20 51°13.918 2°55.656 5.2 178 8.8 101780 54
2005-05-17 07:35:25 51°13.922 2°55.658 7.7 171 8.8 101780 56
2005-05-17 07:35:31 51°13.927 2°55.661 6.9 179 8.8 101780 56
2005-05-17 07:35:34 51°13.929 2°55.662 4.9 180 8.9 101780 55
2005-05-17 07:35:40 51°13.931 2°55.664 4.7 169 8.9 101780 55
2005-05-17 07:35:44 51°13.932 2°55.664 7 149 8.8 101780 55
2005-05-17 07:35:50 51°13.932 2°55.662 5.7 137 8.8 101780 55
2005-05-17 07:35:54 51°13.931 2°55.66 5.6 130 8.8 101770 55
2005-05-17 07:36:00 51°13.931 2°55.658 6.1 121 8.8 101770 55
2005-05-17 07:36:04 51°13.93 2°55.651 5.5 105 8.8 101780 55
2005-05-17 07:36:10 51°13.929 2°55.643 5.7 96 8.8 101780 55
2005-05-17 07:36:14 51°13.93 2°55.637 5.5 92 8.8 101780 56
2005-05-17 07:36:20 51°13.931 2°55.627 4.8 63 8.8 101780 56
2005-05-17 07:36:24 51°13.932 2°55.62 7.7 56 8.8 101780 56
2005-05-17 07:36:30 51°13.936 2°55.609 6.4 57 8.8 101780 56
2005-05-17 07:36:35 51°13.94 2°55.599 8.6 49 8.8 101780 57
2005-05-17 07:36:40 51°13.944 2°55.589 7.7 37 8.8 101780 57
2005-05-17 07:36:45 51°13.95 2°55.579 7.8 29 8.8 101770 57
2005-05-17 07:36:50 51°13.956 2°55.57 8.3 45 8.8 101770 57
2005-05-17 07:36:54 51°13.962 2°55.561 10.4 36 8.8 101760 55
2005-05-17 07:37:00 51°13.97 2°55.55 8.7 33 8.8 101760 55
2005-05-17 07:37:05 51°13.977 2°55.54 9.8 38 8.7 101770 56
2005-05-17 07:37:10 51°13.986 2°55.53 9.9 35 8.7 101770 56
2005-05-17 07:37:14 51°13.993 2°55.521 9.4 32 8.7 101770 54
2005-05-17 07:37:20 51°14.003 2°55.51 8.6 34 8.7 101770 54
2005-05-17 07:37:24 51°14.01 2°55.501 9.2 30 8.7 101760 54
2005-05-17 07:37:30 51°14.023 2°55.488 9.6 20 8.7 101760 54
2005-05-17 07:37:35 51°14.032 2°55.479 11.8 26 8.7 101760 54
2005-05-17 07:37:40 51°14.042 2°55.47 11.8 26 8.7 101760 54
2005-05-17 07:37:44 51°14.051 2°55.463 10.7 31 8.7 101760 55
2005-05-17 07:37:50 51°14.064 2°55.451 11 31 8.7 101760 55
2005-05-17 07:37:54 51°14.073 2°55.443 11.4 31 8.6 101760 54
2005-05-17 07:38:00 51°14.086 2°55.434 11.5 28 8.6 101760 54
2005-05-17 07:38:04 51°14.097 2°55.427 10.1 31 8.6 101750 54
2005-05-17 07:38:10 51°14.111 2°55.418 9.8 28 8.6 101750 54
2005-05-17 07:38:14 51°14.12 2°55.411 9 23 8.6 101750 54
2005-05-17 07:38:20 51°14.133 2°55.403 10.5 30 8.6 101750 54
2005-05-17 07:38:25 51°14.145 2°55.394 9.8 32 8.6 101760 56
2005-05-17 07:38:30 51°14.157 2°55.386 9.5 28 8.6 101760 56
2005-05-17 07:38:34 51°14.168 2°55.377 9 28 8.6 101750 57
2005-05-17 07:38:40 51°14.182 2°55.365 9.6 28 8.6 101750 57
2005-05-17 07:38:44 51°14.19 2°55.358 8.7 18 8.6 101760 56
2005-05-17 07:38:50 51°14.204 2°55.344 10.6 33 8.6 101760 56
2005-05-17 07:38:54 51°14.214 2°55.334 10.3 33 8.6 101760 54
2005-05-17 07:39:00 51°14.227 2°55.32 9.6 30 8.6 101760 54
2005-05-17 07:39:04 51°14.236 2°55.31 9.1 31 8.5 101760 55
2005-05-17 07:39:10 51°14.25 2°55.293 9.8 34 8.5 101760 55
2005-05-17 07:39:14 51°14.259 2°55.281 8.6 34 8.5 101760 55
2005-05-17 07:39:20 51°14.271 2°55.265 8.8 41 8.5 101760 55
2005-05-17 07:39:24 51°14.278 2°55.251 8.6 43 8.5 101760 56
2005-05-17 07:39:30 51°14.29 2°55.23 9.1 33 8.5 101760 56
2005-05-17 07:39:34 51°14.298 2°55.213 8.4 35 8.5 101760 55
2005-05-17 07:39:40 51°14.308 2°55.192 8.4 27 8.5 101760 55
2005-05-17 07:39:45 51°14.317 2°55.172 8.7 43 8.4 101760 55
2005-05-17 07:39:50 51°14.327 2°55.15 9.9 42 8.4 101760 55
2005-05-17 07:39:54 51°14.334 2°55.133 7.8 37 8.5 101760 58
2005-05-17 07:40:00 51°14.343 2°55.111 9.9 40 8.5 101760 58
2005-05-17 07:40:04 51°14.351 2°55.094 10 52 8.5 101770 60
2005-05-17 07:40:10 51°14.36 2°55.068 9.4 54 8.5 101770 60
2005-05-17 07:40:15 51°14.368 2°55.046 8.6 59 8.5 101770 59
2005-05-17 07:40:20 51°14.375 2°55.023 8.8 64 8.5 101770 59
2005-05-17 07:40:24 51°14.381 2°55.004 8.3 61 8.4 101780 57
2005-05-17 07:40:30 51°14.389 2°54.976 9.1 55 8.4 101780 57
2005-05-17 07:40:35 51°14.396 2°54.953 9.6 62 8.4 101780 57
2005-05-17 07:40:40 51°14.402 2°54.927 8.9 60 8.4 101780 57
2005-05-17 07:40:45 51°14.409 2°54.902 8.4 69 8.4 101760 56
2005-05-17 07:40:50 51°14.415 2°54.877 8 65 8.4 101760 56
2005-05-17 07:40:54 51°14.42 2°54.853 9.6 64 8.4 101770 56
2005-05-17 07:41:00 51°14.426 2°54.825 8.5 58 8.4 101770 56
2005-05-17 07:41:05 51°14.431 2°54.8 8.2 68 8.4 101770 58
2005-05-17 07:41:10 51°14.436 2°54.773 8.6 70 8.4 101770 58
2005-05-17 07:41:14 51°14.439 2°54.749 7.7 70 8.4 101770 57
2005-05-17 07:41:20 51°14.441 2°54.72 7.2 65 8.4 101770 57
2005-05-17 07:41:24 51°14.443 2°54.699 8.6 65 8.4 101770 59
2005-05-17 07:41:30 51°14.445 2°54.667 8.9 65 8.4 101770 59
2005-05-17 07:41:34 51°14.446 2°54.643 7.2 74 8.4 101770 58
2005-05-17 07:41:40 51°14.447 2°54.613 7.5 77 8.4 101770 58
2005-05-17 07:41:45 51°14.447 2°54.587 7.5 59 8.4 101770 58
2005-05-17 07:41:50 51°14.448 2°54.557 8.6 69 8.4 101770 58
2005-05-17 07:41:55 51°14.447 2°54.534 6.5 79 8.4 101770 57
2005-05-17 07:41:58 51°14.446 2°54.518 7.3 76 8.4 101770 57
2005-05-17 07:42:04 51°14.443 2°54.486 7.7 77 8.4 101760 58
2005-05-17 07:42:10 51°14.439 2°54.452 6 76 8.4 101760 58
2005-05-17 07:42:14 51°14.437 2°54.431 5.5 73 8.4 101780 59
2005-05-17 07:42:20 51°14.431 2°54.403 7.1 80 8.4 101780 59
2005-05-17 07:42:24 51°14.428 2°54.382 6.7 69 8.4 101770 58
2005-05-17 07:42:30 51°14.42 2°54.349 6.9 66 8.4 101770 58
2005-05-17 07:42:34 51°14.416 2°54.329 5.9 78 8.4 101770 59
2005-05-17 07:42:38 51°14.411 2°54.309 7.4 83 8.4 101770 59
2005-05-17 07:42:44 51°14.405 2°54.277 6.4 79 8.4 101780 60
2005-05-17 07:42:50 51°14.397 2°54.246 7.1 91 8.4 101780 60
2005-05-17 07:42:54 51°14.392 2°54.225 6.6 92 8.4 101770 61
2005-05-17 07:43:00 51°14.386 2°54.197 7.1 97 8.4 101770 61
2005-05-17 07:43:05 51°14.379 2°54.171 6.6 84 8.4 101770 59
2005-05-17 07:43:10 51°14.374 2°54.144 6.7 96 8.4 101770 59
2005-05-17 07:43:15 51°14.366 2°54.119 7.5 93 8.4 101770 60
2005-05-17 07:43:20 51°14.361 2°54.092 5.3 70 8.4 101770 60
2005-05-17 07:43:24 51°14.354 2°54.072 6.3 83 8.4 101780 60
2005-05-17 07:43:30 51°14.346 2°54.041 6.9 88 8.4 101780 60
2005-05-17 07:43:35 51°14.337 2°54.016 6.1 94 8.4 101780 60
2005-05-17 07:43:40 51°14.33 2°53.991 5.5 82 8.4 101780 60
2005-05-17 07:43:44 51°14.324 2°53.971 4.1 72 8.4 101780 61
2005-05-17 07:43:50 51°14.314 2°53.941 4.7 84 8.4 101780 61
2005-05-17 07:43:55 51°14.306 2°53.916 5.3 82 8.4 101780 57
2005-05-17 07:44:00 51°14.298 2°53.891 5.6 79 8.4 101780 57
2005-05-17 07:44:05 51°14.291 2°53.865 6.8 82 8.4 101780 61
2005-05-17 07:44:10 51°14.282 2°53.84 5.4 72 8.4 101780 61
2005-05-17 07:44:14 51°14.276 2°53.816 6.8 87 8.4 101780 60
2005-05-17 07:44:20 51°14.267 2°53.789 7 83 8.4 101780 60
2005-05-17 07:44:24 51°14.261 2°53.769 7.6 84 8.4 101780 61
2005-05-17 07:44:30 51°14.25 2°53.738 6.7 83 8.4 101780 61
2005-05-17 07:44:34 51°14.244 2°53.717 5.9 79 8.5 101780 61
2005-05-17 07:44:40 51°14.234 2°53.69 5.1 79 8.5 101780 61
2005-05-17 07:44:45 51°14.226 2°53.665 5.9 82 8.5 101780 60
2005-05-17 07:44:50 51°14.216 2°53.637 5.9 82 8.5 101780 60
2005-05-17 07:44:55 51°14.209 2°53.615 6.2 86 8.4 101780 56
2005-05-17 07:45:00 51°14.2 2°53.59 4.8 77 8.4 101780 56
2005-05-17 07:45:05 51°14.192 2°53.565 5.2 78 8.4 101780 57
2005-05-17 07:45:10 51°14.183 2°53.541 4.3 71 8.4 101780 57
2005-05-17 07:45:15 51°14.175 2°53.515 5.5 79 8.4 101780 56
2005-05-17 07:45:18 51°14.169 2°53.501 4.4 83 8.4 101780 56
2005-05-17 07:45:24 51°14.159 2°53.471 3.4 73 8.4 101780 55
2005-05-17 07:45:30 51°14.149 2°53.441 5.4 79 8.4 101780 55
2005-05-17 07:45:35 51°14.139 2°53.417 4.5 79 8.4 101780 56
2005-05-17 07:45:40 51°14.131 2°53.392 5.2 72 8.4 101780 56
2005-05-17 07:45:44 51°14.124 2°53.372 5.7 79 8.4 101780 57
2005-05-17 07:45:50 51°14.114 2°53.342 6.6 83 8.4 101780 57
2005-05-17 07:45:55 51°14.105 2°53.318 3.8 70 8.4 101790 59
2005-05-17 07:46:00 51°14.097 2°53.293 5.6 -999 8.4 101790 59
2005-05-17 07:46:03 51°14.091 2°53.275 4.4 72 8.4 101790 59
2005-05-17 07:46:10 51°14.08 2°53.243 6.2 81 8.4 101790 59
2005-05-17 07:46:14 51°14.071 2°53.222 4.2 77 8.4 101780 56
2005-05-17 07:46:20 51°14.063 2°53.193 5 79 8.4 101780 56
2005-05-17 07:46:24 51°14.055 2°53.175 4 75 8.3 101780 54
2005-05-17 07:46:30 51°14.043 2°53.141 4.4 71 8.3 101780 54
2005-05-17 07:46:34 51°14.037 2°53.121 4.4 72 8.3 101780 53
2005-05-17 07:46:40 51°14.027 2°53.094 4 72 8.3 101780 53
2005-05-17 07:46:44 51°14.021 2°53.073 3.7 64 8.3 101780 53
2005-05-17 07:46:50 51°14.009 2°53.042 3.9 75 8.3 101780 53
2005-05-17 07:46:54 51°14.001 2°53.022 3.1 72 8.3 101780 54
2005-05-17 07:47:00 51°13.991 2°52.996 3.7 -999 8.3 101780 54
2005-05-17 07:47:04 51°13.984 2°52.977 3.5 76 8.3 101790 55
2005-05-17 07:47:10 51°13.97 2°52.947 2.8 56 8.3 101790 55
2005-05-17 07:47:14 51°13.963 2°52.926 3.3 80 8.3 101790 55
2005-05-17 07:47:20 51°13.95 2°52.904 1.5 47 8.3 101790 55
2005-05-17 07:47:24 51°13.944 2°52.883 3.4 78 8.3 101790 55
2005-05-17 07:47:30 51°13.931 2°52.856 3.2 77 8.3 101790 55
2005-05-17 07:47:35 51°13.922 2°52.832 3.6 82 8.3 101790 56
2005-05-17 07:47:40 51°13.91 2°52.81 4.2 85 8.3 101790 56
2005-05-17 07:47:45 51°13.901 2°52.787 2.7 77 8.3 101790 55
2005-05-17 07:47:50 51°13.89 2°52.764 3.5 82 8.3 101790 55
2005-05-17 07:47:54 51°13.882 2°52.742 2.7 70 8.3 101790 57
2005-05-17 07:48:00 51°13.87 2°52.718 3.4 -999 8.3 101790 57
2005-05-17 07:48:05 51°13.861 2°52.694 3.3 75 8.3 101780 56
2005-05-17 07:48:10 51°13.848 2°52.669 3.1 66 8.3 101780 56
2005-05-17 07:48:15 51°13.841 2°52.647 4.1 70 8.3 101790 55
2005-05-17 07:48:20 51°13.83 2°52.626 4.4 65 8.3 101790 55
2005-05-17 07:48:24 51°13.822 2°52.606 5.4 82 8.3 101790 56
2005-05-17 07:48:30 51°13.81 2°52.578 4.8 87 8.3 101790 56
2005-05-17 07:48:35 51°13.799 2°52.556 5.9 83 8.3 101790 57
2005-05-17 07:48:40 51°13.789 2°52.532 5.6 80 8.3 101790 57
2005-05-17 07:48:45 51°13.778 2°52.51 5.2 87 8.3 101790 58
2005-05-17 07:48:50 51°13.769 2°52.487 5.4 88 8.3 101790 58
2005-05-17 07:48:55 51°13.757 2°52.465 4.1 81 8.3 101790 59
2005-05-17 07:49:00 51°13.748 2°52.44 6 85 8.3 101790 59
2005-05-17 07:49:05 51°13.737 2°52.418 5.3 85 8.3 101780 59
2005-05-17 07:49:10 51°13.728 2°52.393 5.5 84 8.3 101780 59
2005-05-17 07:49:14 51°13.72 2°52.371 4.6 88 8.3 101780 59
2005-05-17 07:49:20 51°13.71 2°52.344 4.7 81 8.3 101780 59
2005-05-17 07:49:25 51°13.702 2°52.319 4.4 76 8.3 101790 58
2005-05-17 07:49:30 51°13.691 2°52.293 3.8 70 8.3 101790 58
2005-05-17 07:49:35 51°13.684 2°52.271 4.6 75 8.3 101790 58
2005-05-17 07:49:40 51°13.675 2°52.247 3.8 74 8.3 101790 58
2005-05-17 07:49:45 51°13.665 2°52.223 3.8 77 8.3 101790 59
2005-05-17 07:49:50 51°13.657 2°52.198 4.6 78 8.3 101790 59
2005-05-17 07:49:55 51°13.647 2°52.174 4.2 56 8.3 101790 57
2005-05-17 07:49:59 51°13.64 2°52.151 4.6 -999 8.3 101790 57
2005-05-17 07:50:04 51°13.63 2°52.128 4.6 65 8.3 101790 58
2005-05-17 07:50:10 51°13.621 2°52.1 5.8 67 8.3 101790 58
2005-05-17 07:50:14 51°13.612 2°52.079 5.4 76 8.4 101790 59
2005-05-17 07:50:20 51°13.604 2°52.051 6.4 76 8.4 101790 59
2005-05-17 07:50:25 51°13.593 2°52.025 6.4 58 8.4 101780 60
2005-05-17 07:50:30 51°13.586 2°52.001 6.3 80 8.4 101780 60
2005-05-17 07:50:34 51°13.579 2°51.979 5.6 76 8.4 101790 59
2005-05-17 07:50:40 51°13.569 2°51.952 5.8 69 8.4 101790 59
2005-05-17 07:50:45 51°13.56 2°51.924 4 77 8.4 101790 60
2005-05-17 07:50:50 51°13.551 2°51.9 5.4 73 8.4 101790 60
2005-05-17 07:50:54 51°13.545 2°51.879 5.4 70 8.4 101780 57
2005-05-17 07:51:00 51°13.534 2°51.854 4.4 -999 8.4 101780 57
2005-05-17 07:51:05 51°13.526 2°51.829 5.6 78 8.4 101780 58
2005-05-17 07:51:10 51°13.516 2°51.805 5.8 76 8.4 101780 58
2005-05-17 07:51:14 51°13.508 2°51.783 6.2 70 8.4 101780 59
2005-05-17 07:51:20 51°13.498 2°51.755 6.2 74 8.4 101780 59
2005-05-17 07:51:24 51°13.491 2°51.736 5.6 67 8.4 101790 58
2005-05-17 07:51:30 51°13.48 2°51.704 6.2 68 8.4 101790 58
2005-05-17 07:51:34 51°13.472 2°51.685 5.8 69 8.4 101780 59
2005-05-17 07:51:40 51°13.462 2°51.657 5.8 74 8.4 101780 59
2005-05-17 07:51:45 51°13.453 2°51.633 4.8 66 8.4 101780 56
2005-05-17 07:51:50 51°13.444 2°51.608 4.9 80 8.4 101780 56
2005-05-17 07:51:54 51°13.437 2°51.587 4.4 58 8.4 101790 56
2005-05-17 07:52:00 51°13.427 2°51.559 7.6 -999 8.4 101790 56
2005-05-17 07:52:05 51°13.418 2°51.535 5.8 66 8.4 101780 55
2005-05-17 07:52:09 51°13.409 2°51.514 6.3 67 8.4 101780 55
2005-05-17 07:52:14 51°13.4 2°51.489 6.8 76 8.4 101780 58
2005-05-17 07:52:20 51°13.39 2°51.463 5 73 8.4 101780 58
2005-05-17 07:52:24 51°13.384 2°51.443 5.9 63 8.4 101790 56
2005-05-17 07:52:30 51°13.372 2°51.413 6.5 67 8.4 101790 56
2005-05-17 07:52:35 51°13.363 2°51.389 5.6 56 8.4 101780 55
2005-05-17 07:52:40 51°13.354 2°51.364 6.8 61 8.4 101780 55
2005-05-17 07:52:44 51°13.347 2°51.344 5.2 64 8.4 101780 54
2005-05-17 07:52:50 51°13.337 2°51.315 5.6 72 8.4 101780 54
2005-05-17 07:52:54 51°13.329 2°51.294 5 55 8.4 101780 55
2005-05-17 07:53:00 51°13.319 2°51.265 7.2 -999 8.4 101780 55
2005-05-17 07:53:05 51°13.31 2°51.242 5.6 57 8.3 101780 53
2005-05-17 07:53:10 51°13.301 2°51.217 6.4 67 8.3 101780 53
2005-05-17 07:53:14 51°13.293 2°51.196 5 63 8.4 101780 53
2005-05-17 07:53:19 51°13.284 2°51.171 6.1 61 8.4 101780 53
2005-05-17 07:53:25 51°13.273 2°51.145 5.9 64 8.4 101790 55
2005-05-17 07:53:30 51°13.264 2°51.12 4.9 65 8.4 101790 55
2005-05-17 07:53:34 51°13.256 2°51.099 4.8 58 8.3 101780 54
2005-05-17 07:53:40 51°13.245 2°51.072 5.4 61 8.3 101780 54
2005-05-17 07:53:45 51°13.237 2°51.047 4 59 8.3 101790 53
2005-05-17 07:53:50 51°13.227 2°51.023 4.8 61 8.3 101790 53
2005-05-17 07:53:54 51°13.22 2°51 5.2 65 8.3 101790 54
2005-05-17 07:54:00 51°13.209 2°50.975 5 -999 8.3 101790 54
2005-05-17 07:54:05 51°13.2 2°50.949 5.1 65 8.3 101790 53
2005-05-17 07:54:10 51°13.192 2°50.925 4.7 75 8.3 101790 53
2005-05-17 07:54:14 51°13.183 2°50.904 5.6 74 8.3 101790 54
2005-05-17 07:54:20 51°13.173 2°50.877 4.8 72 8.3 101790 54
2005-05-17 07:54:25 51°13.164 2°50.853 3.4 76 8.3 101790 54
2005-05-17 07:54:30 51°13.154 2°50.83 3.4 51 8.3 101790 54
2005-05-17 07:54:35 51°13.146 2°50.804 4.2 75 8.3 101790 54
2005-05-17 07:54:40 51°13.135 2°50.782 4 61 8.3 101790 54
2005-05-17 07:54:44 51°13.129 2°50.761 4.4 57 8.3 101790 57
2005-05-17 07:54:50 51°13.117 2°50.733 5.2 58 8.3 101790 57
2005-05-17 07:54:54 51°13.109 2°50.711 5 60 8.3 101790 56
2005-05-17 07:55:00 51°13.099 2°50.684 4.8 -999 8.3 101790 56
2005-05-17 07:55:04 51°13.091 2°50.665 4.7 71 8.3 101790 54
2005-05-17 07:55:10 51°13.082 2°50.634 5.2 74 8.3 101790 54
2005-05-17 07:55:15 51°13.071 2°50.611 4.5 73 8.3 101790 57
2005-05-17 07:55:20 51°13.064 2°50.585 4 63 8.3 101790 57
2005-05-17 07:55:25 51°13.054 2°50.562 4 67 8.3 101790 55
2005-05-17 07:55:30 51°13.045 2°50.536 3.4 62 8.3 101790 55
2005-05-17 07:55:35 51°13.035 2°50.509 3.5 58 8.3 101790 54
2005-05-17 07:55:40 51°13.027 2°50.487 4 49 8.3 101790 54
2005-05-17 07:55:45 51°13.019 2°50.462 3.1 56 8.3 101790 54
2005-05-17 07:55:50 51°13.009 2°50.438 4.2 50 8.3 101790 54
2005-05-17 07:55:54 51°13.002 2°50.416 3.7 53 8.3 101790 54
2005-05-17 07:56:00 51°12.992 2°50.389 4.2 -999 8.3 101790 54
2005-05-17 07:56:04 51°12.984 2°50.371 3.4 51 8.3 101790 53
2005-05-17 07:56:10 51°12.974 2°50.34 4.5 66 8.3 101790 53
2005-05-17 07:56:14 51°12.965 2°50.319 2.9 43 8.3 101790 54
2005-05-17 07:56:20 51°12.955 2°50.291 4.1 61 8.3 101790 54
2005-05-17 07:56:25 51°12.945 2°50.269 4.4 54 8.3 101790 54
2005-05-17 07:56:29 51°12.937 2°50.245 4.3 58 8.3 101790 54
2005-05-17 07:56:35 51°12.926 2°50.216 4 66 8.3 101790 55
2005-05-17 07:56:40 51°12.918 2°50.195 3.3 40 8.3 101790 55
2005-05-17 07:56:44 51°12.91 2°50.175 3.8 57 8.3 101790 57
2005-05-17 07:56:50 51°12.9 2°50.145 3.3 63 8.3 101790 57
2005-05-17 07:56:55 51°12.891 2°50.121 3.5 57 8.3 101790 54
2005-05-17 07:57:00 51°12.882 2°50.097 3.6 -999 8.3 101790 54
2005-05-17 07:57:04 51°12.874 2°50.078 3.6 64 8.3 101790 57
2005-05-17 07:57:10 51°12.863 2°50.047 2.8 47 8.3 101790 57
2005-05-17 07:57:15 51°12.855 2°50.026 3.2 62 8.3 101790 55
2005-05-17 07:57:20 51°12.844 2°50.002 3.4 59 8.3 101790 55
2005-05-17 07:57:25 51°12.836 2°49.977 3.2 52 8.3 101800 55
2005-05-17 07:57:30 51°12.826 2°49.953 3.6 55 8.3 101800 55
2005-05-17 07:57:34 51°12.819 2°49.932 3 57 8.3 101790 57
2005-05-17 07:57:40 51°12.808 2°49.905 3.4 53 8.3 101790 57
2005-05-17 07:57:44 51°12.802 2°49.885 3.8 65 8.3 101790 56
2005-05-17 07:57:50 51°12.788 2°49.855 2.9 51 8.3 101790 56
2005-05-17 07:57:54 51°12.782 2°49.834 4 86 8.3 101790 58
2005-05-17 07:58:00 51°12.771 2°49.809 2.5 60 8.3 101790 58
2005-05-17 07:58:04 51°12.762 2°49.787 4.5 66 8.3 101790 56
2005-05-17 07:58:10 51°12.753 2°49.761 2.9 33 8.3 101790 56
2005-05-17 07:58:14 51°12.745 2°49.739 3.5 73 8.3 101790 56
2005-05-17 07:58:20 51°12.734 2°49.713 3 55 8.3 101790 56
2005-05-17 07:58:24 51°12.727 2°49.691 3.1 63 8.3 101800 55
2005-05-17 07:58:30 51°12.717 2°49.664 2.7 43 8.3 101800 55
2005-05-17 07:58:35 51°12.708 2°49.64 3.1 69 8.3 101790 55
2005-05-17 07:58:39 51°12.699 2°49.619 3.4 45 8.3 101790 55
2005-05-17 07:58:44 51°12.69 2°49.597 4.1 65 8.3 101790 54
2005-05-17 07:58:50 51°12.679 2°49.568 2.9 52 8.3 101790 54
2005-05-17 07:58:54 51°12.672 2°49.545 3.1 66 8.3 101800 54
2005-05-17 07:59:00 51°12.661 2°49.519 3.2 66 8.3 101800 54
2005-05-17 07:59:05 51°12.652 2°49.495 3.2 65 8.3 101800 55
2005-05-17 07:59:10 51°12.643 2°49.471 2.9 67 8.3 101800 55
2005-05-17 07:59:14 51°12.634 2°49.45 2.4 71 8.3 101790 56
2005-05-17 07:59:20 51°12.624 2°49.423 2.7 78 8.3 101790 56
2005-05-17 07:59:24 51°12.616 2°49.404 2.9 63 8.3 101790 54
2005-05-17 07:59:30 51°12.605 2°49.374 4.5 73 8.3 101790 54
2005-05-17 07:59:34 51°12.596 2°49.353 3.6 77 8.3 101800 54
2005-05-17 07:59:40 51°12.587 2°49.326 2.7 74 8.3 101800 54
2005-05-17 07:59:44 51°12.579 2°49.304 2.7 64 8.3 101800 57
2005-05-17 07:59:50 51°12.568 2°49.277 2 81 8.3 101800 57
2005-05-17 07:59:54 51°12.56 2°49.255 2 75 8.3 101800 55
2005-05-17 08:00:00 51°12.549 2°49.228 2.7 89 8.3 101800 55
2005-05-17 08:00:05 51°12.539 2°49.202 1.6 80 8.3 101800 56
2005-05-17 08:00:10 51°12.532 2°49.178 3.6 87 8.3 101800 56
2005-05-17 08:00:14 51°12.523 2°49.157 2.4 89 8.3 101790 57
2005-05-17 08:00:20 51°12.513 2°49.13 3.2 93 8.3 101790 57
2005-05-17 08:00:25 51°12.503 2°49.102 2.8 85 8.3 101790 57
2005-05-17 08:00:30 51°12.493 2°49.078 3.5 65 8.3 101790 57
2005-05-17 08:00:34 51°12.487 2°49.058 3.6 65 8.3 101800 57
2005-05-17 08:00:40 51°12.476 2°49.031 4.5 76 8.3 101800 57
2005-05-17 08:00:44 51°12.468 2°49.008 4.8 99 8.4 101790 58
2005-05-17 08:00:50 51°12.458 2°48.982 5.4 89 8.4 101790 58
2005-05-17 08:00:54 51°12.45 2°48.96 4.4 94 8.4 101800 59
2005-05-17 08:01:00 51°12.44 2°48.933 4.8 96 8.4 101800 59
2005-05-17 08:01:05 51°12.431 2°48.908 5.6 89 8.4 101790 60
2005-05-17 08:01:10 51°12.422 2°48.883 4.9 84 8.4 101790 60
2005-05-17 08:01:14 51°12.412 2°48.862 4.9 84 8.4 101800 57
2005-05-17 08:01:20 51°12.403 2°48.834 4.2 86 8.4 101800 57
2005-05-17 08:01:24 51°12.394 2°48.813 4.8 83 8.4 101790 57
2005-05-17 08:01:30 51°12.384 2°48.782 4.1 86 8.4 101790 57
2005-05-17 08:01:34 51°12.376 2°48.763 3.3 83 8.4 101790 55
2005-05-17 08:01:40 51°12.366 2°48.735 3.9 83 8.4 101790 55
2005-05-17 08:01:44 51°12.359 2°48.715 3.4 78 8.4 101800 55
2005-05-17 08:01:50 51°12.348 2°48.684 4.4 82 8.4 101800 55
2005-05-17 08:01:54 51°12.34 2°48.662 3.2 83 8.4 101790 54
2005-05-17 08:02:00 51°12.33 2°48.635 2.9 -999 8.4 101790 54
2005-05-17 08:02:05 51°12.321 2°48.61 3 74 8.4 101800 55
2005-05-17 08:02:10 51°12.311 2°48.581 3.1 83 8.4 101800 55
2005-05-17 08:02:14 51°12.303 2°48.562 3.2 73 8.4 101790 54
2005-05-17 08:02:20 51°12.294 2°48.534 3.4 71 8.4 101790 54
2005-05-17 08:02:25 51°12.283 2°48.506 3.4 76 8.4 101800 54
2005-05-17 08:02:30 51°12.276 2°48.483 3.6 76 8.4 101800 54
2005-05-17 08:02:35 51°12.266 2°48.459 4.2 87 8.3 101790 55
2005-05-17 08:02:40 51°12.257 2°48.434 3.4 83 8.3 101790 55
2005-05-17 08:02:45 51°12.247 2°48.406 4 83 8.3 101800 56
2005-05-17 08:02:50 51°12.238 2°48.383 3.3 84 8.3 101800 56
2005-05-17 08:02:54 51°12.232 2°48.36 3.6 82 8.3 101790 55
2005-05-17 08:03:00 51°12.219 2°48.334 3.2 -999 8.3 101790 55
2005-05-17 08:03:05 51°12.211 2°48.307 4.4 75 8.4 101790 55
2005-05-17 08:03:09 51°12.203 2°48.285 4.5 93 8.4 101790 55
2005-05-17 08:03:14 51°12.194 2°48.26 3.4 74 8.4 101790 55
2005-05-17 08:03:20 51°12.184 2°48.232 3.4 78 8.4 101790 55
2005-05-17 08:03:24 51°12.175 2°48.211 4.6 86 8.4 101800 59
2005-05-17 08:03:30 51°12.165 2°48.182 5.8 85 8.4 101800 59
2005-05-17 08:03:34 51°12.156 2°48.161 5.2 88 8.4 101790 57
2005-05-17 08:03:40 51°12.147 2°48.133 5.1 94 8.4 101790 57
2005-05-17 08:03:45 51°12.137 2°48.108 5 96 8.4 101790 58
2005-05-17 08:03:50 51°12.129 2°48.083 5.3 100 8.4 101790 58
2005-05-17 08:03:55 51°12.119 2°48.058 4.7 95 8.4 101790 56
2005-05-17 08:04:00 51°12.109 2°48.031 4.6 -999 8.4 101790 56
2005-05-17 08:04:05 51°12.101 2°48.008 4.2 103 8.4 101790 55
2005-05-17 08:04:10 51°12.09 2°47.985 3.6 95 8.4 101790 55
2005-05-17 08:04:15 51°12.082 2°47.959 3.3 87 8.4 101790 57
2005-05-17 08:04:20 51°12.072 2°47.934 4.8 84 8.4 101790 57
2005-05-17 08:04:25 51°12.063 2°47.909 3.6 93 8.4 101790 55
2005-05-17 08:04:30 51°12.053 2°47.886 4.6 99 8.4 101790 55
2005-05-17 08:04:34 51°12.045 2°47.862 3.2 90 8.4 101790 57
2005-05-17 08:04:40 51°12.033 2°47.836 5.2 103 8.4 101790 57
2005-05-17 08:04:45 51°12.023 2°47.812 2.3 77 8.4 101790 59
2005-05-17 08:04:50 51°12.015 2°47.786 5.8 96 8.4 101790 59
2005-05-17 08:04:54 51°12.006 2°47.764 2.3 107 8.4 101790 55
2005-05-17 08:05:00 51°11.996 2°47.737 5 -999 8.4 101790 55
2005-05-17 08:05:04 51°11.987 2°47.715 2.5 92 8.4 101790 56
2005-05-17 08:05:10 51°11.977 2°47.684 4.7 97 8.4 101790 56
2005-05-17 08:05:15 51°11.966 2°47.664 2.4 93 8.4 101800 55
2005-05-17 08:05:20 51°11.958 2°47.637 4.4 89 8.4 101800 55
2005-05-17 08:05:24 51°11.95 2°47.615 3.7 84 8.5 101790 55
2005-05-17 08:05:30 51°11.94 2°47.585 4.2 92 8.5 101790 55
2005-05-17 08:05:35 51°11.93 2°47.563 3.8 87 8.4 101790 55
2005-05-17 08:05:40 51°11.922 2°47.538 3.5 88 8.4 101790 55
2005-05-17 08:05:44 51°11.913 2°47.517 3.1 76 8.5 101790 56
2005-05-17 08:05:50 51°11.902 2°47.489 3.8 84 8.5 101790 56
2005-05-17 08:05:54 51°11.895 2°47.466 3.6 76 8.4 101800 55
2005-05-17 08:06:00 51°11.884 2°47.44 3.7 84 8.4 101800 55
2005-05-17 08:06:05 51°11.875 2°47.415 3.7 79 8.5 101790 56
2005-05-17 08:06:10 51°11.866 2°47.39 4.5 80 8.5 101790 56
2005-05-17 08:06:15 51°11.856 2°47.366 4.5 76 8.5 101800 57
2005-05-17 08:06:20 51°11.846 2°47.341 4.2 76 8.5 101800 57
2005-05-17 08:06:24 51°11.839 2°47.318 4.9 78 8.5 101790 58
2005-05-17 08:06:30 51°11.827 2°47.29 4.8 76 8.5 101790 58
2005-05-17 08:06:34 51°11.82 2°47.269 5.5 89 8.5 101790 58
2005-05-17 08:06:40 51°11.809 2°47.243 5.4 83 8.5 101790 58
2005-05-17 08:06:45 51°11.8 2°47.217 5.5 80 8.5 101790 57
2005-05-17 08:06:50 51°11.791 2°47.192 4.6 74 8.5 101790 57
2005-05-17 08:06:54 51°11.784 2°47.169 4.9 83 8.5 101790 55
2005-05-17 08:07:00 51°11.773 2°47.143 5.7 84 8.5 101790 55
2005-05-17 08:07:05 51°11.765 2°47.116 5.6 82 8.5 101790 56
2005-05-17 08:07:10 51°11.754 2°47.092 4.4 73 8.5 101790 56
2005-05-17 08:07:14 51°11.746 2°47.069 4.3 83 8.5 101790 57
2005-05-17 08:07:20 51°11.737 2°47.042 5.1 84 8.5 101790 57
2005-05-17 08:07:25 51°11.726 2°47.015 6.9 84 8.5 101790 57
2005-05-17 08:07:30 51°11.717 2°46.989 4.8 82 8.5 101790 57
2005-05-17 08:07:34 51°11.71 2°46.969 5.4 91 8.5 101790 56
2005-05-17 08:07:40 51°11.699 2°46.944 4.8 90 8.5 101790 56
2005-05-17 08:07:44 51°11.692 2°46.922 4.4 83 8.5 101790 60
2005-05-17 08:07:50 51°11.679 2°46.89 4.7 80 8.5 101790 60
2005-05-17 08:07:54 51°11.672 2°46.87 5.1 79 8.5 101790 57
2005-05-17 08:08:00 51°11.662 2°46.843 4.1 -999 8.5 101790 57
2005-05-17 08:08:05 51°11.651 2°46.816 3.7 77 8.5 101790 57
2005-05-17 08:08:10 51°11.643 2°46.793 3.8 77 8.5 101790 57
2005-05-17 08:08:14 51°11.635 2°46.77 4.9 81 8.5 101790 57
2005-05-17 08:08:20 51°11.625 2°46.743 4.8 78 8.5 101790 57
2005-05-17 08:08:25 51°11.615 2°46.719 4.8 72 8.5 101790 56
2005-05-17 08:08:30 51°11.605 2°46.693 5 66 8.5 101790 56
2005-05-17 08:08:35 51°11.596 2°46.668 5.3 72 8.5 101790 58
2005-05-17 08:08:40 51°11.587 2°46.644 4.6 73 8.5 101790 58
2005-05-17 08:08:45 51°11.578 2°46.618 6 73 8.5 101790 56
2005-05-17 08:08:50 51°11.569 2°46.592 4.7 69 8.5 101790 56
2005-05-17 08:08:55 51°11.56 2°46.567 5.1 73 8.5 101790 55
2005-05-17 08:09:00 51°11.55 2°46.543 4.6 72 8.5 101790 55
2005-05-17 08:09:04 51°11.543 2°46.522 4.8 77 8.5 101790 54
2005-05-17 08:09:10 51°11.532 2°46.492 4.9 74 8.5 101790 54
2005-05-17 08:09:14 51°11.524 2°46.469 5.2 78 8.5 101790 56
2005-05-17 08:09:20 51°11.513 2°46.442 4 76 8.5 101790 56
2005-05-17 08:09:24 51°11.507 2°46.421 4.2 78 8.4 101800 56
2005-05-17 08:09:30 51°11.494 2°46.389 3.7 75 8.4 101800 56
2005-05-17 08:09:34 51°11.487 2°46.368 4.4 79 8.4 101790 55
2005-05-17 08:09:40 51°11.476 2°46.343 3.9 75 8.4 101790 55
2005-05-17 08:09:44 51°11.469 2°46.322 4.9 68 8.4 101800 54
2005-05-17 08:09:50 51°11.457 2°46.289 5.2 72 8.4 101800 54
2005-05-17 08:09:54 51°11.45 2°46.269 4.8 72 8.4 101800 56
2005-05-17 08:10:00 51°11.44 2°46.241 5.6 72 8.4 101800 56
2005-05-17 08:10:04 51°11.434 2°46.221 4.1 79 8.4 101800 55
2005-05-17 08:10:10 51°11.422 2°46.189 4.5 75 8.4 101800 55
2005-05-17 08:10:14 51°11.414 2°46.17 6.2 64 8.4 101790 55
2005-05-17 08:10:20 51°11.404 2°46.141 5.7 69 8.4 101790 55
2005-05-17 08:10:25 51°11.395 2°46.116 4.9 74 8.4 101790 54
2005-05-17 08:10:30 51°11.386 2°46.091 3.8 75 8.4 101790 54
2005-05-17 08:10:34 51°11.378 2°46.068 5.1 83 8.4 101790 56
2005-05-17 08:10:40 51°11.368 2°46.041 4.8 80 8.4 101790 56
2005-05-17 08:10:44 51°11.36 2°46.019 4.4 77 8.4 101790 57
2005-05-17 08:10:50 51°11.349 2°45.992 4.4 81 8.4 101790 57
2005-05-17 08:10:54 51°11.341 2°45.97 3.6 82 8.4 101790 54
2005-05-17 08:11:00 51°11.329 2°45.941 3.7 73 8.4 101790 54
2005-05-17 08:11:04 51°11.323 2°45.923 2.9 75 8.4 101790 56
2005-05-17 08:11:10 51°11.313 2°45.893 4 77 8.4 101790 56
2005-05-17 08:11:14 51°11.304 2°45.872 3.5 81 8.3 101790 54
2005-05-17 08:11:20 51°11.294 2°45.844 3.7 71 8.3 101790 54
2005-05-17 08:11:24 51°11.287 2°45.823 3.4 72 8.3 101790 55
2005-05-17 08:11:30 51°11.275 2°45.795 3 66 8.3 101790 55
2005-05-17 08:11:35 51°11.266 2°45.77 3.9 60 8.4 101800 55
2005-05-17 08:11:40 51°11.257 2°45.745 3.3 61 8.4 101800 55
2005-05-17 08:11:45 51°11.248 2°45.72 3.4 71 8.4 101800 54
2005-05-17 08:11:50 51°11.238 2°45.693 3.5 61 8.4 101800 54
2005-05-17 08:11:54 51°11.23 2°45.673 4.4 81 8.4 101800 56
2005-05-17 08:12:00 51°11.22 2°45.645 4.6 76 8.4 101800 56
2005-05-17 08:12:04 51°11.214 2°45.622 4.4 85 8.4 101800 54
2005-05-17 08:12:10 51°11.202 2°45.593 4.8 84 8.4 101800 54
2005-05-17 08:12:14 51°11.196 2°45.573 4.3 75 8.4 101800 54
2005-05-17 08:12:20 51°11.185 2°45.546 3.6 75 8.4 101800 54
2005-05-17 08:12:25 51°11.177 2°45.52 4.9 65 8.4 101800 58
2005-05-17 08:12:30 51°11.167 2°45.495 5.6 66 8.4 101800 58
2005-05-17 08:12:35 51°11.159 2°45.47 5.2 72 8.4 101790 56
2005-05-17 08:12:40 51°11.149 2°45.446 4.7 68 8.4 101790 56
2005-05-17 08:12:45 51°11.141 2°45.419 5.2 79 8.4 101790 57
2005-05-17 08:12:50 51°11.132 2°45.395 4.4 74 8.4 101790 57
2005-05-17 08:12:54 51°11.124 2°45.372 5 78 8.5 101790 58
2005-05-17 08:13:00 51°11.115 2°45.344 4 74 8.5 101790 58
2005-05-17 08:13:05 51°11.106 2°45.318 4.1 60 8.4 101790 54
2005-05-17 08:13:10 51°11.099 2°45.291 4.7 78 8.4 101790 54
2005-05-17 08:13:14 51°11.091 2°45.269 3.7 56 8.4 101800 54
2005-05-17 08:13:20 51°11.082 2°45.242 4.4 76 8.4 101800 54
2005-05-17 08:13:25 51°11.073 2°45.217 3.3 55 8.4 101800 54
2005-05-17 08:13:30 51°11.065 2°45.191 5.2 64 8.4 101800 54
2005-05-17 08:13:34 51°11.058 2°45.166 4.3 61 8.4 101800 55
2005-05-17 08:13:40 51°11.05 2°45.137 4.6 73 8.4 101800 55
2005-05-17 08:13:44 51°11.044 2°45.117 3.3 52 8.4 101790 53
2005-05-17 08:13:50 51°11.034 2°45.086 4.8 64 8.4 101790 53
2005-05-17 08:13:55 51°11.026 2°45.061 4.2 62 8.4 101800 53
2005-05-17 08:14:00 51°11.019 2°45.034 4.6 68 8.4 101800 53
2005-05-17 08:14:04 51°11.012 2°45.01 4 74 8.4 101790 53
2005-05-17 08:14:10 51°11.004 2°44.982 2.6 80 8.4 101790 53
2005-05-17 08:14:14 51°10.998 2°44.957 4.1 78 8.4 101790 54
2005-05-17 08:14:20 51°10.991 2°44.928 4.4 74 8.4 101790 54
2005-05-17 08:14:24 51°10.986 2°44.906 5.2 86 8.4 101800 54
2005-05-17 08:14:30 51°10.978 2°44.87 5.1 83 8.4 101800 54
2005-05-17 08:14:34 51°10.972 2°44.849 5.4 90 8.4 101790 56
2005-05-17 08:14:40 51°10.965 2°44.819 3.4 90 8.4 101790 56
2005-05-17 08:14:44 51°10.96 2°44.798 5 72 8.4 101790 58
2005-05-17 08:14:50 51°10.952 2°44.764 3.9 62 8.4 101790 58
2005-05-17 08:14:54 51°10.947 2°44.74 4.5 73 8.4 101790 59
2005-05-17 08:15:00 51°10.938 2°44.711 4 69 8.4 101790 59
2005-05-17 08:15:04 51°10.934 2°44.689 4.7 73 8.4 101790 57
2005-05-17 08:15:10 51°10.924 2°44.657 4.1 61 8.4 101790 57
2005-05-17 08:15:15 51°10.918 2°44.63 3.6 49 8.4 101790 57
2005-05-17 08:15:20 51°10.911 2°44.602 4.7 68 8.4 101790 57
2005-05-17 08:15:24 51°10.905 2°44.578 4.1 63 8.4 101790 56
2005-05-17 08:15:30 51°10.897 2°44.546 5.4 63 8.4 101790 56
2005-05-17 08:15:34 51°10.89 2°44.525 4.5 58 8.4 101800 55
2005-05-17 08:15:40 51°10.884 2°44.49 5.9 69 8.4 101800 55
2005-05-17 08:15:44 51°10.878 2°44.473 4.5 68 8.4 101790 56
2005-05-17 08:15:49 51°10.872 2°44.442 4.5 66 8.4 101790 56
2005-05-17 08:15:54 51°10.864 2°44.416 4.3 62 8.4 101790 55
2005-05-17 08:15:59 51°10.859 2°44.388 4.3 49 8.4 101790 55
2005-05-17 08:16:05 51°10.85 2°44.356 5.1 69 8.4 101800 56
2005-05-17 08:16:10 51°10.844 2°44.328 4.6 76 8.4 101800 56
2005-05-17 08:16:15 51°10.837 2°44.305 3.6 80 8.4 101790 55
2005-05-17 08:16:19 51°10.832 2°44.28 4.1 71 8.4 101790 55
2005-05-17 08:16:24 51°10.825 2°44.256 4.4 80 8.4 101800 56
2005-05-17 08:16:30 51°10.818 2°44.223 3.4 60 8.4 101800 56
2005-05-17 08:16:34 51°10.812 2°44.199 4 72 8.4 101790 55
2005-05-17 08:16:40 51°10.804 2°44.169 3.6 56 8.4 101790 55
2005-05-17 08:16:44 51°10.799 2°44.144 4.2 64 8.4 101800 54
2005-05-17 08:16:50 51°10.791 2°44.114 3.6 77 8.4 101800 54
2005-05-17 08:16:54 51°10.787 2°44.089 3.2 67 8.4 101790 55
2005-05-17 08:17:00 51°10.778 2°44.06 4.4 -999 8.4 101790 55
2005-05-17 08:17:04 51°10.772 2°44.038 3.1 80 8.4 101800 57
2005-05-17 08:17:10 51°10.765 2°44.006 4 80 8.4 101800 57
2005-05-17 08:17:15 51°10.757 2°43.98 3.6 64 8.4 101790 57
2005-05-17 08:17:20 51°10.751 2°43.951 4.3 72 8.4 101790 57
2005-05-17 08:17:24 51°10.746 2°43.93 4.2 63 8.4 101790 57
2005-05-17 08:17:30 51°10.738 2°43.898 4.8 74 8.4 101790 57
2005-05-17 08:17:34 51°10.732 2°43.873 4.9 73 8.4 101790 55
2005-05-17 08:17:40 51°10.725 2°43.843 5.2 81 8.4 101790 55
2005-05-17 08:17:45 51°10.718 2°43.816 6.8 79 8.4 101790 58
2005-05-17 08:17:50 51°10.711 2°43.789 5.9 79 8.4 101790 58
2005-05-17 08:17:55 51°10.705 2°43.761 5.6 78 8.4 101800 59
2005-05-17 08:18:00 51°10.697 2°43.735 7.7 86 8.4 101800 59
2005-05-17 08:18:05 51°10.692 2°43.708 5.6 82 8.5 101790 57
2005-05-17 08:18:10 51°10.684 2°43.681 7.6 86 8.5 101790 57
2005-05-17 08:18:14 51°10.678 2°43.657 7.7 88 8.5 101790 57
2005-05-17 08:18:20 51°10.67 2°43.627 7 89 8.5 101790 57
2005-05-17 08:18:24 51°10.665 2°43.606 7.3 88 8.5 101790 56
2005-05-17 08:18:30 51°10.656 2°43.571 7.5 86 8.5 101790 56
2005-05-17 08:18:34 51°10.65 2°43.55 6.7 80 8.5 101790 55
2005-05-17 08:18:40 51°10.644 2°43.519 7.2 84 8.5 101790 55
2005-05-17 08:18:45 51°10.636 2°43.493 5.9 84 8.4 101790 55
2005-05-17 08:18:50 51°10.629 2°43.462 7.6 79 8.4 101790 55
2005-05-17 08:18:54 51°10.624 2°43.441 6.5 91 8.5 101790 56
2005-05-17 08:19:00 51°10.615 2°43.413 4.9 82 8.5 101790 56
2005-05-17 08:19:03 51°10.612 2°43.393 5.9 90 8.5 101790 54
2005-05-17 08:19:10 51°10.602 2°43.358 5.9 83 8.5 101790 54
2005-05-17 08:19:15 51°10.597 2°43.33 6 89 8.4 101790 55
2005-05-17 08:19:20 51°10.589 2°43.304 3.8 85 8.4 101790 55
2005-05-17 08:19:25 51°10.584 2°43.275 4.6 79 8.4 101790 54
2005-05-17 08:19:30 51°10.577 2°43.247 6 82 8.4 101790 54
2005-05-17 08:19:35 51°10.571 2°43.22 5.2 80 8.4 101790 53
2005-05-17 08:19:40 51°10.564 2°43.193 4.4 82 8.4 101790 53
2005-05-17 08:19:45 51°10.558 2°43.166 6.3 81 8.4 101800 55
2005-05-17 08:19:50 51°10.549 2°43.14 4.9 66 8.4 101800 55
2005-05-17 08:19:54 51°10.544 2°43.113 7.3 81 8.5 101800 54
2005-05-17 08:20:00 51°10.536 2°43.085 4.1 -999 8.5 101800 54
2005-05-17 08:20:04 51°10.532 2°43.062 4.9 80 8.4 101800 56
2005-05-17 08:20:10 51°10.523 2°43.031 5.2 63 8.4 101800 56
2005-05-17 08:20:15 51°10.518 2°43.002 4.7 76 8.4 101800 55
2005-05-17 08:20:20 51°10.51 2°42.976 6 65 8.4 101800 55
2005-05-17 08:20:24 51°10.505 2°42.954 5.9 77 8.5 101790 56
2005-05-17 08:20:30 51°10.497 2°42.923 4.5 74 8.5 101790 56
2005-05-17 08:20:34 51°10.492 2°42.897 5.2 74 8.5 101800 56
2005-05-17 08:20:40 51°10.483 2°42.868 4.8 69 8.5 101800 56
2005-05-17 08:20:44 51°10.478 2°42.845 4.6 82 8.4 101790 54
2005-05-17 08:20:50 51°10.469 2°42.814 4.9 66 8.4 101790 54
2005-05-17 08:20:54 51°10.463 2°42.789 5.1 74 8.4 101790 53
2005-05-17 08:21:00 51°10.455 2°42.759 5.3 66 8.4 101790 53
2005-05-17 08:21:05 51°10.45 2°42.731 5.6 73 8.4 101800 52
2005-05-17 08:21:10 51°10.441 2°42.702 4.1 69 8.4 101800 52
2005-05-17 08:21:14 51°10.437 2°42.681 4.3 74 8.4 101800 55
2005-05-17 08:21:20 51°10.428 2°42.652 5.7 59 8.4 101800 55
2005-05-17 08:21:25 51°10.422 2°42.624 5.9 65 8.4 101790 53
2005-05-17 08:21:30 51°10.415 2°42.597 5.9 70 8.4 101790 53
2005-05-17 08:21:35 51°10.408 2°42.571 6.1 61 8.4 101800 52
2005-05-17 08:21:40 51°10.402 2°42.544 6.3 81 8.4 101800 52
2005-05-17 08:21:44 51°10.397 2°42.523 5 59 8.4 101800 56
2005-05-17 08:21:50 51°10.388 2°42.489 6.2 82 8.4 101800 56
2005-05-17 08:21:55 51°10.381 2°42.464 4.1 62 8.4 101800 55
2005-05-17 08:22:00 51°10.374 2°42.437 6 76 8.4 101800 55
2005-05-17 08:22:04 51°10.368 2°42.415 5.4 78 8.4 101790 53
2005-05-17 08:22:10 51°10.361 2°42.383 5.4 74 8.4 101790 53
2005-05-17 08:22:14 51°10.355 2°42.359 5 77 8.4 101800 54
2005-05-17 08:22:20 51°10.348 2°42.329 5.1 78 8.4 101800 54
2005-05-17 08:22:25 51°10.341 2°42.302 5.4 80 8.4 101800 55
2005-05-17 08:22:30 51°10.335 2°42.275 5 70 8.4 101800 55
2005-05-17 08:22:35 51°10.329 2°42.248 5.3 79 8.4 101800 56
2005-05-17 08:22:40 51°10.323 2°42.221 5 73 8.4 101800 56
2005-05-17 08:22:44 51°10.316 2°42.197 5.8 76 8.4 101800 55
2005-05-17 08:22:50 51°10.309 2°42.163 6.3 73 8.4 101800 55
2005-05-17 08:22:54 51°10.302 2°42.142 6.9 81 8.4 101800 57
2005-05-17 08:23:00 51°10.296 2°42.114 4.6 -999 8.4 101800 57
2005-05-17 08:23:03 51°10.291 2°42.095 5.7 75 8.4 101800 56
2005-05-17 08:23:10 51°10.283 2°42.058 5.2 71 8.4 101800 56
2005-05-17 08:23:15 51°10.276 2°42.03 5.5 77 8.4 101800 55
2005-05-17 08:23:20 51°10.271 2°42.004 4.2 75 8.4 101800 55
2005-05-17 08:23:24 51°10.265 2°41.983 5 73 8.4 101800 54
2005-05-17 08:23:30 51°10.256 2°41.947 3.9 72 8.4 101800 54
2005-05-17 08:23:35 51°10.25 2°41.922 4.7 80 8.4 101800 53
2005-05-17 08:23:40 51°10.244 2°41.895 4.3 79 8.4 101800 53
2005-05-17 08:23:44 51°10.238 2°41.873 3.5 77 8.4 101800 52
2005-05-17 08:23:50 51°10.229 2°41.839 4.2 72 8.4 101800 52
2005-05-17 08:23:54 51°10.224 2°41.817 4.7 75 8.4 101810 57
2005-05-17 08:24:00 51°10.217 2°41.787 4.3 -999 8.4 101810 57
2005-05-17 08:24:05 51°10.21 2°41.76 4.5 76 8.4 101800 54
2005-05-17 08:24:10 51°10.203 2°41.733 3.7 75 8.4 101800 54
2005-05-17 08:24:14 51°10.196 2°41.709 4.7 75 8.4 101810 54
2005-05-17 08:24:20 51°10.188 2°41.676 4.3 64 8.4 101810 54
2005-05-17 08:24:24 51°10.184 2°41.657 5.1 80 8.4 101810 52
2005-05-17 08:24:30 51°10.175 2°41.624 4.3 76 8.4 101810 52
2005-05-17 08:24:34 51°10.17 2°41.599 5.1 86 8.4 101810 55
2005-05-17 08:24:40 51°10.162 2°41.57 5 86 8.4 101810 55
2005-05-17 08:24:44 51°10.156 2°41.546 5.8 87 8.4 101800 54
2005-05-17 08:24:50 51°10.149 2°41.515 4.5 81 8.4 101800 54
2005-05-17 08:24:55 51°10.143 2°41.486 5.6 87 8.4 101800 54
2005-05-17 08:24:59 51°10.138 2°41.462 4.1 101 8.4 101800 54
2005-05-17 08:25:05 51°10.13 2°41.433 5.1 95 8.4 101800 53
2005-05-17 08:25:10 51°10.123 2°41.402 4.4 80 8.4 101800 53
2005-05-17 08:25:14 51°10.118 2°41.38 4.4 80 8.4 101800 53
2005-05-17 08:25:19 51°10.112 2°41.353 4.3 88 8.4 101800 53
2005-05-17 08:25:25 51°10.105 2°41.323 5.1 79 8.4 101800 55
2005-05-17 08:25:30 51°10.097 2°41.293 4.5 70 8.4 101800 55
2005-05-17 08:25:34 51°10.093 2°41.271 6 83 8.4 101800 54
2005-05-17 08:25:40 51°10.085 2°41.242 6.4 85 8.4 101800 54
2005-05-17 08:25:45 51°10.079 2°41.211 6.3 86 8.5 101810 57
2005-05-17 08:25:50 51°10.073 2°41.186 6.1 82 8.5 101810 57
2005-05-17 08:25:54 51°10.067 2°41.162 5 77 8.5 101810 57
2005-05-17 08:26:00 51°10.061 2°41.131 5.7 82 8.5 101810 57
2005-05-17 08:26:04 51°10.055 2°41.107 6.9 80 8.4 101800 53
2005-05-17 08:26:10 51°10.047 2°41.077 6.3 83 8.4 101800 53
2005-05-17 08:26:15 51°10.041 2°41.05 5.5 80 8.4 101800 54
2005-05-17 08:26:20 51°10.035 2°41.023 6.7 84 8.4 101800 54
2005-05-17 08:26:24 51°10.027 2°41 6 83 8.5 101800 56
2005-05-17 08:26:30 51°10.022 2°40.965 7.5 85 8.5 101800 56
2005-05-17 08:26:34 51°10.015 2°40.945 5.7 82 8.4 101800 54
2005-05-17 08:26:40 51°10.008 2°40.915 6.5 84 8.4 101800 54
2005-05-17 08:26:45 51°10.002 2°40.888 5.1 80 8.4 101800 52
2005-05-17 08:26:50 51°9.995 2°40.86 7.1 84 8.4 101800 52
2005-05-17 08:26:54 51°9.99 2°40.836 5 95 8.4 101800 55
2005-05-17 08:27:00 51°9.982 2°40.807 5.1 90 8.4 101800 55
2005-05-17 08:27:05 51°9.975 2°40.777 5.5 83 8.4 101800 55
2005-05-17 08:27:10 51°9.97 2°40.752 5.7 82 8.4 101800 55
2005-05-17 08:27:14 51°9.964 2°40.728 6.1 85 8.4 101800 55
2005-05-17 08:27:20 51°9.958 2°40.698 6.7 83 8.4 101800 55
2005-05-17 08:27:25 51°9.951 2°40.671 6.5 82 8.5 101810 54
2005-05-17 08:27:30 51°9.945 2°40.64 6.2 82 8.5 101810 54
2005-05-17 08:27:35 51°9.939 2°40.615 6.2 67 8.5 101800 56
2005-05-17 08:27:40 51°9.933 2°40.588 7.8 82 8.5 101800 56
2005-05-17 08:27:45 51°9.925 2°40.561 5.4 74 8.5 101800 55
2005-05-17 08:27:50 51°9.92 2°40.533 5.8 75 8.5 101800 55
2005-05-17 08:27:54 51°9.914 2°40.508 3.6 73 8.5 101800 54
2005-05-17 08:28:00 51°9.908 2°40.478 7.2 81 8.5 101800 54
2005-05-17 08:28:05 51°9.902 2°40.45 5 67 8.5 101800 57
2005-05-17 08:28:10 51°9.894 2°40.42 5.2 72 8.5 101800 57
2005-05-17 08:28:15 51°9.889 2°40.394 5.8 65 8.5 101790 60
2005-05-17 08:28:20 51°9.883 2°40.363 7 71 8.5 101790 60
2005-05-17 08:28:25 51°9.878 2°40.339 6.6 71 8.5 101800 56
2005-05-17 08:28:30 51°9.871 2°40.308 7.2 64 8.5 101800 56
2005-05-17 08:28:34 51°9.868 2°40.286 6.8 72 8.5 101800 57
2005-05-17 08:28:40 51°9.859 2°40.257 6.6 67 8.5 101800 57
2005-05-17 08:28:44 51°9.855 2°40.231 5.8 68 8.5 101800 57
2005-05-17 08:28:50 51°9.846 2°40.202 6.5 67 8.5 101800 57
2005-05-17 08:28:54 51°9.843 2°40.176 5.9 75 8.5 101800 55
2005-05-17 08:29:00 51°9.833 2°40.145 4.7 -999 8.5 101800 55
2005-05-17 08:29:05 51°9.829 2°40.12 5.9 74 8.5 101800 53
2005-05-17 08:29:10 51°9.822 2°40.093 5.2 79 8.5 101800 53
2005-05-17 08:29:15 51°9.816 2°40.066 5 77 8.5 101800 52
2005-05-17 08:29:20 51°9.81 2°40.038 4.7 78 8.5 101800 52
2005-05-17 08:29:24 51°9.804 2°40.018 5.1 74 8.5 101810 51
2005-05-17 08:29:30 51°9.797 2°39.984 4.6 67 8.5 101810 51
2005-05-17 08:29:34 51°9.793 2°39.959 4.3 80 8.5 101810 53
2005-05-17 08:29:40 51°9.785 2°39.93 4.3 79 8.5 101810 53
2005-05-17 08:29:45 51°9.779 2°39.903 3.2 70 8.4 101810 52
2005-05-17 08:29:50 51°9.773 2°39.875 4 69 8.4 101810 52
2005-05-17 08:29:54 51°9.767 2°39.85 4.2 69 8.4 101800 51
2005-05-17 08:30:00 51°9.761 2°39.819 3.5 71 8.4 101800 51
2005-05-17 08:30:05 51°9.755 2°39.789 3.6 73 8.4 101810 52
2005-05-17 08:30:10 51°9.748 2°39.762 3.1 65 8.4 101810 52
2005-05-17 08:30:15 51°9.743 2°39.734 3.6 70 8.4 101810 53
2005-05-17 08:30:20 51°9.737 2°39.71 3.1 76 8.4 101810 53
2005-05-17 08:30:24 51°9.731 2°39.686 2.8 60 8.4 101810 52
2005-05-17 08:30:30 51°9.725 2°39.654 3 73 8.4 101810 52
2005-05-17 08:30:35 51°9.718 2°39.628 3.7 63 8.4 101810 54
2005-05-17 08:30:40 51°9.713 2°39.6 4.1 72 8.4 101810 54
2005-05-17 08:30:45 51°9.706 2°39.574 3.4 61 8.4 101820 52
2005-05-17 08:30:50 51°9.7 2°39.545 3.8 74 8.4 101820 52
2005-05-17 08:30:55 51°9.694 2°39.518 2.7 64 8.4 101810 54
2005-05-17 08:30:59 51°9.688 2°39.494 3.8 81 8.4 101810 54
2005-05-17 08:31:05 51°9.681 2°39.461 2.7 63 8.4 101810 54
2005-05-17 08:31:10 51°9.676 2°39.433 3.3 70 8.4 101810 54
2005-05-17 08:31:15 51°9.669 2°39.406 3 50 8.4 101810 56
2005-05-17 08:31:20 51°9.664 2°39.378 4.4 67 8.4 101810 56
2005-05-17 08:31:25 51°9.657 2°39.355 2.1 58 8.4 101800 54
2005-05-17 08:31:30 51°9.651 2°39.324 3.6 81 8.4 101800 54
2005-05-17 08:31:35 51°9.645 2°39.299 1.9 73 8.4 101810 54
2005-05-17 08:31:40 51°9.641 2°39.271 4 91 8.4 101810 54
2005-05-17 08:31:44 51°9.634 2°39.25 1.6 77 8.4 101810 54
2005-05-17 08:31:50 51°9.628 2°39.216 3.5 65 8.4 101810 54
2005-05-17 08:31:54 51°9.621 2°39.193 3.9 71 8.4 101820 54
2005-05-17 08:32:00 51°9.614 2°39.163 3.2 -999 8.4 101820 54
2005-05-17 08:32:05 51°9.608 2°39.135 4.3 68 8.4 101810 53
2005-05-17 08:32:10 51°9.602 2°39.108 4.5 63 8.4 101810 53
2005-05-17 08:32:14 51°9.596 2°39.084 3.4 63 8.4 101820 54
2005-05-17 08:32:20 51°9.59 2°39.054 4 70 8.4 101820 54
2005-05-17 08:32:25 51°9.583 2°39.027 3.8 66 8.4 101810 55
2005-05-17 08:32:30 51°9.577 2°39 4.2 69 8.4 101810 55
2005-05-17 08:32:34 51°9.571 2°38.976 3.9 72 8.5 101810 57
2005-05-17 08:32:40 51°9.564 2°38.946 3.5 65 8.5 101810 57
2005-05-17 08:32:44 51°9.559 2°38.924 4 77 8.5 101810 55
2005-05-17 08:32:50 51°9.552 2°38.892 3.2 56 8.5 101810 55
2005-05-17 08:32:55 51°9.546 2°38.865 4.3 76 8.5 101810 53
2005-05-17 08:33:00 51°9.54 2°38.838 3 67 8.5 101810 53
2005-05-17 08:33:04 51°9.534 2°38.817 3.8 73 8.5 101820 53
2005-05-17 08:33:10 51°9.527 2°38.781 3.3 69 8.5 101820 53
2005-05-17 08:33:15 51°9.52 2°38.754 3.4 63 8.4 101810 52
2005-05-17 08:33:20 51°9.515 2°38.73 3.9 65 8.4 101810 52
2005-05-17 08:33:24 51°9.51 2°38.705 4.2 77 8.4 101810 52
2005-05-17 08:33:30 51°9.502 2°38.675 4.1 80 8.4 101810 52
2005-05-17 08:33:34 51°9.497 2°38.65 6.5 82 8.4 101820 55
2005-05-17 08:33:40 51°9.489 2°38.622 4.6 50 8.4 101820 55
2005-05-17 08:33:45 51°9.485 2°38.593 5.1 74 8.5 101820 59
2005-05-17 08:33:50 51°9.476 2°38.564 3.9 72 8.5 101820 59
2005-05-17 08:33:54 51°9.473 2°38.541 4.2 78 8.5 101810 58
2005-05-17 08:34:00 51°9.465 2°38.512 4.5 71 8.5 101810 58
2005-05-17 08:34:04 51°9.46 2°38.487 4.3 80 8.5 101810 57
2005-05-17 08:34:10 51°9.452 2°38.457 4.6 59 8.5 101810 57
2005-05-17 08:34:14 51°9.447 2°38.433 5.8 75 8.5 101810 56
2005-05-17 08:34:20 51°9.44 2°38.403 5.6 71 8.5 101810 56
2005-05-17 08:34:25 51°9.434 2°38.375 6.3 82 8.5 101810 57
2005-05-17 08:34:30 51°9.427 2°38.346 4.7 77 8.5 101810 57
2005-05-17 08:34:35 51°9.421 2°38.321 4.6 78 8.5 101810 57
2005-05-17 08:34:40 51°9.415 2°38.29 5.7 81 8.5 101810 57
2005-05-17 08:34:45 51°9.41 2°38.265 5.4 84 8.5 101810 57
2005-05-17 08:34:50 51°9.404 2°38.238 5.1 79 8.5 101810 57
2005-05-17 08:34:54 51°9.398 2°38.214 5.6 66 8.6 101810 58
2005-05-17 08:35:00 51°9.392 2°38.183 6.5 63 8.6 101810 58
2005-05-17 08:35:04 51°9.385 2°38.159 6.2 79 8.5 101810 56
2005-05-17 08:35:10 51°9.377 2°38.126 5.7 71 8.5 101810 56
2005-05-17 08:35:14 51°9.372 2°38.104 6.5 72 8.6 101810 57
2005-05-17 08:35:20 51°9.366 2°38.073 5.6 76 8.6 101810 57
2005-05-17 08:35:25 51°9.36 2°38.046 5.6 76 8.5 101810 57
2005-05-17 08:35:30 51°9.354 2°38.015 5.8 73 8.5 101810 57
2005-05-17 08:35:35 51°9.349 2°37.986 6.4 80 8.5 101820 55
2005-05-17 08:35:40 51°9.343 2°37.959 5 80 8.5 101820 55
2005-05-17 08:35:45 51°9.337 2°37.934 5.5 81 8.5 101810 56
2005-05-17 08:35:50 51°9.331 2°37.904 4.5 80 8.5 101810 56
2005-05-17 08:35:55 51°9.326 2°37.879 4.7 75 8.5 101810 53
2005-05-17 08:35:59 51°9.319 2°37.854 4.1 73 8.5 101810 53
2005-05-17 08:36:04 51°9.314 2°37.829 4.6 79 8.5 101810 55
2005-05-17 08:36:10 51°9.306 2°37.793 4.2 69 8.5 101810 55
2005-05-17 08:36:14 51°9.302 2°37.771 4.4 73 8.5 101820 56
2005-05-17 08:36:20 51°9.294 2°37.741 4.6 67 8.5 101820 56
2005-05-17 08:36:24 51°9.29 2°37.716 4.3 71 8.5 101810 58
2005-05-17 08:36:30 51°9.282 2°37.687 3.6 59 8.5 101810 58
2005-05-17 08:36:35 51°9.277 2°37.659 5 58 8.5 101820 57
2005-05-17 08:36:40 51°9.269 2°37.632 4.2 60 8.5 101820 57
2005-05-17 08:36:45 51°9.263 2°37.601 4 76 8.5 101820 57
2005-05-17 08:36:50 51°9.257 2°37.574 4 72 8.5 101820 57
2005-05-17 08:36:55 51°9.251 2°37.549 5 71 8.5 101820 59
2005-05-17 08:37:00 51°9.246 2°37.521 6.1 70 8.5 101820 59
2005-05-17 08:37:05 51°9.238 2°37.491 7.4 64 8.5 101820 58
2005-05-17 08:37:10 51°9.234 2°37.464 6.3 75 8.5 101820 58
2005-05-17 08:37:14 51°9.228 2°37.444 6.8 69 8.6 101810 59
2005-05-17 08:37:20 51°9.224 2°37.415 6.8 79 8.6 101810 59
2005-05-17 08:37:24 51°9.218 2°37.394 4.9 74 8.6 101810 55
2005-05-17 08:37:30 51°9.213 2°37.365 5.5 79 8.6 101810 55
2005-05-17 08:37:34 51°9.208 2°37.347 5.1 81 8.6 101810 57
2005-05-17 08:37:40 51°9.201 2°37.319 3.8 63 8.6 101810 57
2005-05-17 08:37:44 51°9.197 2°37.303 5.8 63 8.5 101810 56
2005-05-17 08:37:50 51°9.189 2°37.275 6.2 64 8.5 101810 56
2005-05-17 08:37:55 51°9.185 2°37.253 5.6 67 8.5 101810 56
2005-05-17 08:38:00 51°9.179 2°37.236 5.6 64 8.5 101810 56
2005-05-17 08:38:05 51°9.176 2°37.216 5.3 76 8.6 101810 58
2005-05-17 08:38:10 51°9.171 2°37.198 4.9 71 8.6 101810 58
2005-05-17 08:38:14 51°9.168 2°37.181 4 77 8.5 101810 55
2005-05-17 08:38:20 51°9.164 2°37.163 4.2 72 8.5 101810 55
2005-05-17 08:38:24 51°9.162 2°37.15 5.2 84 8.5 101810 54
2005-05-17 08:38:30 51°9.159 2°37.132 4.2 78 8.5 101810 54
2005-05-17 08:38:35 51°9.157 2°37.118 4.6 79 8.5 101820 56
2005-05-17 08:38:40 51°9.156 2°37.106 5 81 8.5 101820 56
2005-05-17 08:38:44 51°9.155 2°37.096 5.2 78 8.5 101820 56
2005-05-17 08:38:50 51°9.155 2°37.082 5.2 80 8.5 101820 56
2005-05-17 08:38:54 51°9.156 2°37.074 5.5 78 8.5 101820 55
2005-05-17 08:39:00 51°9.156 2°37.065 4.4 79 8.5 101820 55
2005-05-17 08:39:04 51°9.157 2°37.059 4.8 79 8.5 101820 54
2005-05-17 08:39:10 51°9.158 2°37.048 4.7 75 8.5 101820 54
2005-05-17 08:39:14 51°9.159 2°37.044 4.7 76 8.5 101810 54
2005-05-17 08:39:20 51°9.16 2°37.038 5 80 8.5 101810 54
2005-05-17 08:39:25 51°9.161 2°37.032 5.2 77 8.5 101820 56
2005-05-17 08:39:30 51°9.162 2°37.029 4.4 73 8.5 101820 56
2005-05-17 08:39:35 51°9.163 2°37.027 5.8 75 8.5 101810 55
2005-05-17 08:39:39 51°9.164 2°37.025 3.8 73 8.5 101810 55
2005-05-17 08:39:44 51°9.164 2°37.026 4.2 79 8.5 101820 56
2005-05-17 08:39:49 51°9.163 2°37.026 5.4 85 8.5 101820 56
2005-05-17 08:39:54 51°9.163 2°37.026 3.7 82 8.6 101820 55
2005-05-17 08:40:00 51°9.162 2°37.026 3.7 83 8.6 101820 55
2005-05-17 08:40:05 51°9.162 2°37.026 4 83 8.5 101810 54
2005-05-17 08:40:10 51°9.162 2°37.026 4 76 8.5 101810 54
2005-05-17 08:40:14 51°9.161 2°37.026 4.7 68 8.5 101820 57
2005-05-17 08:40:20 51°9.161 2°37.026 5 64 8.5 101820 57
2005-05-17 08:40:25 51°9.161 2°37.026 5.3 71 8.6 101820 57
2005-05-17 08:40:30 51°9.16 2°37.026 4 72 8.6 101820 57
2005-05-17 08:40:36 51°9.16 2°37.026 5 91 8.6 101820 57
2005-05-17 08:40:40 51°9.159 2°37.026 6 85 8.6 101820 57
2005-05-17 08:40:45 51°9.159 2°37.026 7 92 8.6 101820 58
2005-05-17 08:40:50 51°9.158 2°37.026 6.4 82 8.6 101820 58
2005-05-17 08:40:54 51°9.158 2°37.026 7.5 97 8.6 101810 60
2005-05-17 08:41:00 51°9.157 2°37.026 6.7 -999 8.6 101810 60
2005-05-17 08:41:04 51°9.156 2°37.026 7.9 101 8.6 101820 59
2005-05-17 08:41:10 51°9.155 2°37.025 6.9 100 8.6 101820 59
2005-05-17 08:41:15 51°9.155 2°37.025 7.2 101 8.7 101820 58
2005-05-17 08:41:20 51°9.155 2°37.025 7.1 98 8.7 101820 58
2005-05-17 08:41:24 51°9.154 2°37.024 7.1 102 8.7 101810 59
2005-05-17 08:41:30 51°9.154 2°37.024 6.3 102 8.7 101810 59
2005-05-17 08:41:34 51°9.154 2°37.024 6 106 8.7 101810 58
2005-05-17 08:41:40 51°9.153 2°37.025 6.4 107 8.7 101810 58
2005-05-17 08:41:44 51°9.153 2°37.024 6.5 101 8.7 101820 55
2005-05-17 08:41:50 51°9.152 2°37.024 6.3 107 8.7 101820 55
2005-05-17 08:41:54 51°9.151 2°37.024 6.6 105 8.7 101820 56
2005-05-17 08:42:00 51°9.151 2°37.023 6.4 106 8.7 101820 56
2005-05-17 08:42:05 51°9.15 2°37.023 6.4 109 8.7 101820 56
2005-05-17 08:42:10 51°9.149 2°37.023 6.1 112 8.7 101820 56
2005-05-17 08:42:14 51°9.149 2°37.023 8.2 112 8.7 101820 56
2005-05-17 08:42:20 51°9.148 2°37.022 6.1 118 8.7 101820 56
2005-05-17 08:42:23 51°9.148 2°37.023 6.2 118 8.7 101820 55
2005-05-17 08:42:30 51°9.147 2°37.023 6 118 8.7 101820 55
2005-05-17 08:42:34 51°9.146 2°37.022 6.2 113 8.7 101820 55
2005-05-17 08:42:40 51°9.146 2°37.022 5.8 116 8.7 101820 55
2005-05-17 08:42:45 51°9.146 2°37.022 6.4 117 8.7 101810 53
2005-05-17 08:42:50 51°9.145 2°37.022 5.9 124 8.7 101810 53
2005-05-17 08:42:54 51°9.144 2°37.022 7.1 116 8.7 101820 54
2005-05-17 08:43:00 51°9.143 2°37.02 5.4 118 8.7 101820 54
2005-05-17 08:43:05 51°9.143 2°37.021 6.1 129 8.7 101820 53
2005-05-17 08:43:10 51°9.142 2°37.02 5.7 125 8.7 101820 53
2005-05-17 08:43:15 51°9.142 2°37.02 7.5 123 8.7 101820 55
2005-05-17 08:43:20 51°9.142 2°37.019 6.4 126 8.7 101820 55
2005-05-17 08:43:24 51°9.141 2°37.019 6.6 126 8.7 101810 55
2005-05-17 08:43:30 51°9.14 2°37.019 6.1 127 8.7 101810 55
2005-05-17 08:43:34 51°9.14 2°37.018 6.5 134 8.7 101820 54
2005-05-17 08:43:39 51°9.139 2°37.018 5.1 144 8.7 101820 54
2005-05-17 08:43:44 51°9.139 2°37.017 5.9 137 8.7 101830 55
2005-05-17 08:43:50 51°9.138 2°37.017 5.5 137 8.7 101830 55
2005-05-17 08:43:55 51°9.138 2°37.017 5.8 135 8.7 101820 57
2005-05-17 08:44:00 51°9.138 2°37.016 5.7 136 8.7 101820 57
2005-05-17 08:44:04 51°9.138 2°37.016 6.6 131 8.7 101820 56
2005-05-17 08:44:10 51°9.137 2°37.015 6.3 136 8.7 101820 56
2005-05-17 08:44:14 51°9.137 2°37.014 5.8 132 8.7 101830 53
2005-05-17 08:44:20 51°9.136 2°37.014 6.2 129 8.7 101830 53
2005-05-17 08:44:24 51°9.136 2°37.014 5.5 127 8.7 101820 53
2005-05-17 08:44:30 51°9.135 2°37.012 5.9 127 8.7 101820 53
2005-05-17 08:44:35 51°9.134 2°37.012 5.4 128 8.7 101830 52
2005-05-17 08:44:40 51°9.135 2°37.011 5.7 121 8.7 101830 52
2005-05-17 08:44:44 51°9.133 2°37.011 5.9 122 8.7 101830 53
2005-05-17 08:44:50 51°9.133 2°37.01 5.6 126 8.7 101830 53
2005-05-17 08:44:54 51°9.133 2°37.01 5.7 132 8.7 101820 54
2005-05-17 08:45:00 51°9.132 2°37.009 4.9 132 8.7 101820 54
2005-05-17 08:45:05 51°9.132 2°37.009 5.1 121 8.7 101830 58
2005-05-17 08:45:10 51°9.131 2°37.008 5.7 122 8.7 101830 58
2005-05-17 08:45:15 51°9.131 2°37.008 5.9 122 8.7 101820 58
2005-05-17 08:45:20 51°9.13 2°37.007 6.6 118 8.7 101820 58
2005-05-17 08:45:25 51°9.13 2°37.006 6.3 119 8.7 101830 56
2005-05-17 08:45:30 51°9.129 2°37.006 6.2 119 8.7 101830 56
2005-05-17 08:45:34 51°9.129 2°37.005 6.3 113 8.7 101830 57
2005-05-17 08:45:40 51°9.128 2°37.005 6.2 120 8.7 101830 57
2005-05-17 08:45:44 51°9.129 2°37.004 6.3 116 8.7 101830 55
2005-05-17 08:45:50 51°9.128 2°37.003 6.6 114 8.7 101830 55
2005-05-17 08:45:54 51°9.128 2°37.003 5.7 116 8.7 101830 54
2005-05-17 08:46:00 51°9.127 2°37.002 6.2 108 8.7 101830 54
2005-05-17 08:46:04 51°9.127 2°37.001 6.4 113 8.7 101830 56
2005-05-17 08:46:10 51°9.125 2°37.001 6.7 118 8.7 101830 56
2005-05-17 08:46:14 51°9.126 2°37 6 110 8.7 101820 57
2005-05-17 08:46:20 51°9.125 2°36.999 5.6 110 8.7 101820 57
2005-05-17 08:46:25 51°9.125 2°36.999 5.8 113 8.7 101820 56
2005-05-17 08:46:30 51°9.124 2°36.998 6.9 108 8.7 101820 56
2005-05-17 08:46:35 51°9.124 2°36.997 6.5 108 8.7 101830 53
2005-05-17 08:46:40 51°9.123 2°36.996 6.8 109 8.7 101830 53
2005-05-17 08:46:45 51°9.123 2°36.996 6.4 106 8.7 101830 54
2005-05-17 08:46:50 51°9.122 2°36.995 5.9 106 8.7 101830 54
2005-05-17 08:46:54 51°9.122 2°36.995 5.5 110 8.7 101830 55
2005-05-17 08:47:00 51°9.122 2°36.994 6.3 105 8.7 101830 55
2005-05-17 08:47:05 51°9.121 2°36.993 5.6 102 8.7 101820 54
2005-05-17 08:47:10 51°9.121 2°36.993 6.5 105 8.7 101820 54
2005-05-17 08:47:14 51°9.121 2°36.992 5.2 109 8.6 101820 54
2005-05-17 08:47:20 51°9.12 2°36.991 6.1 105 8.6 101820 54
2005-05-17 08:47:25 51°9.119 2°36.99 5 102 8.7 101830 54
2005-05-17 08:47:30 51°9.12 2°36.99 5.4 100 8.7 101830 54
2005-05-17 08:47:34 51°9.119 2°36.989 5.7 101 8.6 101830 54
2005-05-17 08:47:40 51°9.119 2°36.989 6 100 8.6 101830 54
2005-05-17 08:47:44 51°9.118 2°36.988 6 99 8.6 101830 53
2005-05-17 08:47:50 51°9.118 2°36.987 6.2 102 8.6 101830 53
2005-05-17 08:47:55 51°9.117 2°36.987 5.5 103 8.6 101830 52
2005-05-17 08:48:00 51°9.117 2°36.987 5.3 107 8.6 101830 52
2005-05-17 08:48:04 51°9.116 2°36.986 5.7 105 8.6 101830 53
2005-05-17 08:48:10 51°9.116 2°36.984 4.4 113 8.6 101830 53
2005-05-17 08:48:14 51°9.116 2°36.984 5 94 8.6 101830 53
2005-05-17 08:48:20 51°9.115 2°36.983 4.8 102 8.6 101830 53
2005-05-17 08:48:24 51°9.115 2°36.983 4.4 100 8.6 101830 51
2005-05-17 08:48:30 51°9.114 2°36.982 5.4 100 8.6 101830 51
2005-05-17 08:48:34 51°9.114 2°36.982 4.7 102 8.6 101820 52
2005-05-17 08:48:40 51°9.114 2°36.981 5.1 99 8.6 101820 52
2005-05-17 08:48:44 51°9.114 2°36.981 3.8 115 8.6 101820 55
2005-05-17 08:48:50 51°9.113 2°36.98 4.7 115 8.6 101820 55
2005-05-17 08:48:55 51°9.113 2°36.979 4.1 112 8.6 101830 55
2005-05-17 08:49:00 51°9.112 2°36.979 4.2 110 8.6 101830 55
2005-05-17 08:49:04 51°9.113 2°36.978 3.8 110 8.6 101830 54
2005-05-17 08:49:10 51°9.112 2°36.977 5.2 105 8.6 101830 54
2005-05-17 08:49:14 51°9.112 2°36.976 4.6 102 8.6 101830 56
2005-05-17 08:49:20 51°9.112 2°36.974 5.2 104 8.6 101830 56
2005-05-17 08:49:25 51°9.112 2°36.973 4.7 107 8.6 101830 54
2005-05-17 08:49:30 51°9.112 2°36.971 4.6 108 8.6 101830 54
2005-05-17 08:49:35 51°9.112 2°36.967 4.9 98 8.7 101830 53
2005-05-17 08:49:40 51°9.113 2°36.965 6 96 8.7 101830 53
2005-05-17 08:49:45 51°9.114 2°36.962 6.4 99 8.6 101830 52
2005-05-17 08:49:50 51°9.115 2°36.957 6.9 85 8.6 101830 52
2005-05-17 08:49:54 51°9.116 2°36.954 5.1 77 8.7 101830 54
2005-05-17 08:50:00 51°9.117 2°36.95 6 69 8.7 101830 54
2005-05-17 08:50:04 51°9.119 2°36.947 5.9 69 8.7 101840 55
2005-05-17 08:50:10 51°9.121 2°36.943 6.7 68 8.7 101840 55
2005-05-17 08:50:14 51°9.122 2°36.939 6.7 65 8.7 101830 57
2005-05-17 08:50:20 51°9.125 2°36.935 6.4 62 8.7 101830 57
2005-05-17 08:50:25 51°9.127 2°36.93 7.7 57 8.7 101830 56
2005-05-17 08:50:30 51°9.13 2°36.926 7.2 53 8.7 101830 56
2005-05-17 08:50:35 51°9.132 2°36.923 6.3 53 8.7 101830 55
2005-05-17 08:50:40 51°9.135 2°36.919 6.8 52 8.7 101830 55
2005-05-17 08:50:45 51°9.138 2°36.916 6.4 50 8.6 101820 56
2005-05-17 08:50:50 51°9.141 2°36.914 6 41 8.6 101820 56
2005-05-17 08:50:55 51°9.144 2°36.911 6.6 41 8.6 101830 55
2005-05-17 08:51:00 51°9.147 2°36.909 6.8 33 8.6 101830 55
2005-05-17 08:51:05 51°9.15 2°36.908 7.6 26 8.6 101830 54
2005-05-17 08:51:10 51°9.154 2°36.906 7.2 18 8.6 101830 54
2005-05-17 08:51:14 51°9.157 2°36.905 7.6 16 8.6 101820 57
2005-05-17 08:51:20 51°9.161 2°36.905 6.9 16 8.6 101820 57
2005-05-17 08:51:24 51°9.163 2°36.905 6.7 17 8.6 101820 58
2005-05-17 08:51:30 51°9.168 2°36.906 7 17 8.6 101820 58
2005-05-17 08:51:34 51°9.171 2°36.906 7.5 7 8.6 101820 55
2005-05-17 08:51:40 51°9.175 2°36.908 7.5 4 8.6 101820 55
2005-05-17 08:51:45 51°9.178 2°36.91 7.4 4 8.6 101830 55
2005-05-17 08:51:50 51°9.181 2°36.913 7.4 359 8.6 101830 55
2005-05-17 08:51:54 51°9.184 2°36.915 6.9 1 8.6 101820 56
2005-05-17 08:52:00 51°9.188 2°36.918 6.2 359 8.6 101820 56